This is the latest recevied weather packets stored in our database for station/object KA3BQE-13. If no packets are shown the sender has not sent any weather packets the latest 1 day(s).
| Time | Temp. | Humidity | Pressure | Rain* | Wind** | Luminosity | Snow |
|---|---|---|---|---|---|---|---|
| 1778092991 | 13.89° C | 46% | 1016.9 hPa | 0 mm | - | 284 W/m² | - |
| 1778092383 | 13.33° C | 47% | 1017 hPa | 0 mm | - | 293 W/m² | - |
| 1778091173 | 15.56° C | 41% | 1017 hPa | 0 mm | - | 982 W/m² | - |
| 1778089959 | 14.44° C | 47% | 1017.2 hPa | 0 mm | - | 223 W/m² | - |
| 1778089353 | 15.56° C | 52% | 1017.2 hPa | 0 mm | - | 883 W/m² | - |
| 1778088742 | 15° C | 52% | 1017.3 hPa | 0 mm | - | 887 W/m² | - |
| 1778087531 | 13.89° C | 49% | 1017.3 hPa | 0 mm | - | 872 W/m² | - |
| 1778086925 | 14.44° C | 52% | 1017.5 hPa | 0 mm | - | 752 W/m² | - |
| 1778086319 | 12.78° C | 48% | 1017.4 hPa | 0 mm | - | 720 W/m² | - |
| 1778085714 | 14.44° C | 51% | 1017.3 hPa | 0 mm | - | 829 W/m² | - |
| 1778085410 | 14.44° C | 53% | 1017.3 hPa | 0 mm | - | 538 W/m² | - |
| 1778084499 | 13.89° C | 59% | 1017 hPa | 0 mm | - | 806 W/m² | - |
| 1778083287 | 12.22° C | 63% | 1016.7 hPa | 0 mm | - | 454 W/m² | - |
| 1778082986 | 12.22° C | 62% | 1016.8 hPa | 0 mm | - | 424 W/m² | - |
| 1778081236 | 11.11° C | 65% | 1016.4 hPa | 0 mm | - | 258 W/m² | - |
| 1778080025 | 11.11° C | 62% | 1016.3 hPa | 0 mm | - | 251 W/m² | - |
| 1778079722 | 11.11° C | 65% | 1016.2 hPa | 0 mm | - | 308 W/m² | - |
| 1778078510 | 10.56° C | 69% | 1015.9 hPa | 0 mm | - | 262 W/m² | - |
| 1778076697 | 10° C | 68% | 1016 hPa | 0 mm | - | 212 W/m² | - |
| 1778076394 | 9.44° C | 70% | 1016.1 hPa | 0 mm | - | 261 W/m² | - |
| 1778076091 | 9.44° C | 71% | 1016.2 hPa | 0 mm | - | 277 W/m² | - |
| 1778075788 | 8.89° C | 70% | 1016.1 hPa | 0 mm | - | 233 W/m² | - |
| 1778075484 | 8.33° C | 74% | 1015.9 hPa | 0 mm | - | 168 W/m² | - |
| 1778075181 | 8.33° C | 77% | 1016 hPa | 0 mm | - | 126 W/m² | - |
| 1778074271 | 8.33° C | 74% | 1015.9 hPa | 0 mm | - | 56 W/m² | - |
* Rain latest hour (hover to see other rain measurements)
** Current wind speed in m/s (hover to see current wind gust speed)